Hourly Weather Barneveld

Today, 19 April, Monday

Time Temperature Precipitation Wind Pressure Humidity
00:00 +5°C° 0 mm 2 mps 765 mmHg 87%
01:00 +5°C° 0 mm 2 mps 765 mmHg 88%
02:00 +5°C° 0 mm 2 mps 765 mmHg 88%
03:00 +4°C° 0 mm 2 mps 764 mmHg 89%
04:00 +5°C° 0 mm 2 mps 764 mmHg 88%
05:00 +6°C° 0 mm 2 mps 764 mmHg 86%
06:00 +7°C° 0 mm 1 mps 764 mmHg 85%
07:00 +8°C° 0.1 mm 2 mps 764 mmHg 81%
08:00 +9°C° 0.1 mm 2 mps 764 mmHg 77%
09:00 +12°C° 0.1 mm 2 mps 764 mmHg 73%
10:00 +13°C° 0.3 mm 2 mps 764 mmHg 69%
11:00 +14°C° 0.3 mm 2 mps 764 mmHg 65%
12:00 +15°C° 0.3 mm 2 mps 764 mmHg 62%
13:00 +15°C° 0.3 mm 2 mps 763 mmHg 61%
14:00 +15°C° 0.3 mm 2 mps 763 mmHg 61%
15:00 +15°C° 0.3 mm 1 mps 763 mmHg 60%
16:00 +14°C° 0.2 mm 1 mps 763 mmHg 65%
17:00 +13°C° 0.2 mm 2 mps 763 mmHg 69%
18:00 +13°C° 0.2 mm 2 mps 763 mmHg 74%
19:00 +10°C° 0 mm 2 mps 763 mmHg 78%
20:00 +9°C° 0 mm 2 mps 763 mmHg 82%
21:00 +8°C° 0 mm 2 mps 763 mmHg 86%
22:00 +8°C° 0 mm 2 mps 763 mmHg 86%
23:00 +7°C° 0 mm 2 mps 763 mmHg 86%

Tomorrow, 20 April, Tuesday

Time Temperature Precipitation Wind Pressure Humidity
00:00 +8°C° 0 mm 1 mps 763 mmHg 87%
01:00 +7°C° 0 mm 1 mps 763 mmHg 86%
02:00 +7°C° 0 mm 1 mps 763 mmHg 86%
03:00 +7°C° 0 mm 1 mps 763 mmHg 86%
04:00 +7°C° 0 mm 1 mps 763 mmHg 84%
05:00 +8°C° 0 mm 1 mps 763 mmHg 82%
06:00 +9°C° 0 mm 1 mps 763 mmHg 81%
07:00 +11°C° 0 mm 1 mps 763 mmHg 75%
08:00 +13°C° 0 mm 1 mps 763 mmHg 69%
09:00 +15°C° 0 mm 1 mps 763 mmHg 62%
10:00 +15°C° 0.1 mm 1 mps 762 mmHg 60%
11:00 +16°C° 0.1 mm 1 mps 762 mmHg 58%
12:00 +17°C° 0.1 mm 2 mps 762 mmHg 56%
13:00 +16°C° 0.2 mm 2 mps 762 mmHg 58%
14:00 +16°C° 0.2 mm 2 mps 761 mmHg 59%
15:00 +16°C° 0.2 mm 2 mps 761 mmHg 60%
16:00 +14°C° 0.2 mm 3 mps 761 mmHg 65%
17:00 +13°C° 0.2 mm 3 mps 761 mmHg 70%
18:00 +12°C° 0.2 mm 3 mps 761 mmHg 74%
19:00 +11°C° 0 mm 3 mps 761 mmHg 76%
20:00 +10°C° 0 mm 3 mps 762 mmHg 77%
21:00 +9°C° 0 mm 2 mps 762 mmHg 78%
22:00 +8°C° 0 mm 2 mps 762 mmHg 79%
23:00 +8°C° 0 mm 2 mps 762 mmHg 79%

Day after tomorrow, 21 April, Wednesday

Time Temperature Precipitation Wind Pressure Humidity
00:00 +8°C° 0 mm 2 mps 762 mmHg 79%
01:00 +7°C° 0 mm 2 mps 762 mmHg 80%
02:00 +7°C° 0 mm 2 mps 762 mmHg 80%
03:00 +7°C° 0 mm 2 mps 762 mmHg 80%
04:00 +7°C° 0 mm 2 mps 762 mmHg 79%
05:00 +7°C° 0 mm 2 mps 762 mmHg 79%
06:00 +8°C° 0 mm 3 mps 762 mmHg 78%
07:00 +8°C° 0 mm 4 mps 762 mmHg 76%
08:00 +9°C° 0 mm 5 mps 763 mmHg 73%
09:00 +10°C° 0 mm 6 mps 763 mmHg 70%
10:00 +10°C° 0 mm 6 mps 763 mmHg 64%
11:00 +10°C° 0 mm 6 mps 763 mmHg 57%
12:00 +10°C° 0 mm 6 mps 764 mmHg 51%
13:00 +10°C° 0 mm 6 mps 764 mmHg 50%
14:00 +10°C° 0 mm 6 mps 764 mmHg 50%
15:00 +9°C° 0 mm 6 mps 764 mmHg 49%
16:00 +8°C° 0 mm 6 mps 764 mmHg 54%
17:00 +7°C° 0 mm 6 mps 764 mmHg 59%
18:00 +6°C° 0 mm 5 mps 765 mmHg 65%
19:00 +5°C° 0 mm 4 mps 765 mmHg 66%
20:00 +4°C° 0 mm 4 mps 765 mmHg 68%
21:00 +2°C° 0 mm 3 mps 766 mmHg 70%
22:00 +3°C° 0 mm 2 mps 766 mmHg 70%
23:00 +3°C° 0 mm 2 mps 766 mmHg 71%

22 April, Thursday

Time Temperature Precipitation Wind Pressure Humidity
00:00 +3°C° 0 mm 2 mps 766 mmHg 71%
01:00 +3°C° 0 mm 2 mps 766 mmHg 72%
02:00 +3°C° 0 mm 2 mps 766 mmHg 74%
03:00 +2°C° 0 mm 3 mps 765 mmHg 76%
04:00 +2°C° 0 mm 3 mps 765 mmHg 74%
05:00 +3°C° 0 mm 3 mps 765 mmHg 72%
06:00 +4°C° 0 mm 4 mps 765 mmHg 70%
07:00 +5°C° 0 mm 4 mps 766 mmHg 66%
08:00 +6°C° 0 mm 5 mps 766 mmHg 61%
09:00 +7°C° 0 mm 6 mps 766 mmHg 57%
10:00 +8°C° 0 mm 6 mps 766 mmHg 57%
11:00 +8°C° 0 mm 6 mps 766 mmHg 57%
12:00 +9°C° 0 mm 6 mps 766 mmHg 56%
13:00 +9°C° 0.1 mm 6 mps 766 mmHg 58%
14:00 +9°C° 0.1 mm 7 mps 766 mmHg 59%
15:00 +9°C° 0.1 mm 7 mps 766 mmHg 60%
16:00 +8°C° 0 mm 6 mps 766 mmHg 64%
17:00 +7°C° 0 mm 5 mps 767 mmHg 68%
18:00 +6°C° 0 mm 5 mps 767 mmHg 72%
19:00 +5°C° 0 mm 4 mps 767 mmHg 77%
20:00 +4°C° 0 mm 3 mps 768 mmHg 82%
21:00 +2°C° 0 mm 3 mps 768 mmHg 88%
22:00 +3°C° 0 mm 2 mps 768 mmHg 89%
23:00 +3°C° 0 mm 2 mps 768 mmHg 90%

23 April, Friday

Time Temperature Precipitation Wind Pressure Humidity
00:00 +3°C° 0 mm 2 mps 768 mmHg 92%
01:00 +2°C° 0 mm 2 mps 768 mmHg 92%
02:00 +2°C° 0 mm 2 mps 768 mmHg 92%
03:00 +2°C° 0 mm 2 mps 768 mmHg 93%
04:00 +3°C° 0 mm 2 mps 768 mmHg 90%
05:00 +4°C° 0 mm 2 mps 768 mmHg 88%
06:00 +5°C° 0 mm 2 mps 769 mmHg 86%
07:00 +7°C° 0 mm 2 mps 769 mmHg 77%
08:00 +8°C° 0 mm 3 mps 769 mmHg 68%
09:00 +10°C° 0 mm 3 mps 769 mmHg 59%
10:00 +11°C° 0 mm 4 mps 769 mmHg 56%
11:00 +12°C° 0 mm 4 mps 769 mmHg 52%
12:00 +12°C° 0 mm 4 mps 769 mmHg 49%
13:00 +12°C° 0 mm 5 mps 769 mmHg 49%
14:00 +12°C° 0 mm 5 mps 769 mmHg 49%
15:00 +12°C° 0 mm 5 mps 769 mmHg 48%
16:00 +10°C° 0 mm 5 mps 769 mmHg 55%
17:00 +8°C° 0 mm 5 mps 769 mmHg 61%
18:00 +7°C° 0 mm 4 mps 769 mmHg 68%
19:00 +6°C° 0 mm 4 mps 769 mmHg 74%
20:00 +4°C° 0 mm 3 mps 770 mmHg 81%
21:00 +4°C° 0 mm 2 mps 770 mmHg 87%
22:00 +4°C° 0 mm 2 mps 770 mmHg 89%
23:00 +4°C° 0 mm 2 mps 770 mmHg 90%

24 April, Saturday

Time Temperature Precipitation Wind Pressure Humidity
00:00 +3°C° 0 mm 2 mps 770 mmHg 92%
01:00 +3°C° 0 mm 2 mps 770 mmHg 93%
02:00 +3°C° 0 mm 2 mps 770 mmHg 93%
03:00 +2°C° 0 mm 3 mps 770 mmHg 94%
04:00 +3°C° 0 mm 3 mps 770 mmHg 87%
05:00 +3°C° 0 mm 3 mps 771 mmHg 80%
06:00 +4°C° 0 mm 3 mps 771 mmHg 73%
07:00 +5°C° 0 mm 3 mps 771 mmHg 66%
08:00 +8°C° 0 mm 3 mps 771 mmHg 60%
09:00 +8°C° 0 mm 4 mps 771 mmHg 53%
10:00 +10°C° 0 mm 4 mps 771 mmHg 51%
11:00 +11°C° 0 mm 4 mps 771 mmHg 49%
12:00 +12°C° 0 mm 4 mps 771 mmHg 46%
13:00 +12°C° 0 mm 4 mps 771 mmHg 48%
14:00 +12°C° 0 mm 5 mps 771 mmHg 49%
15:00 +12°C° 0 mm 5 mps 771 mmHg 51%
16:00 +9°C° 0 mm 5 mps 771 mmHg 56%
17:00 +8°C° 0 mm 5 mps 771 mmHg 60%
18:00 +7°C° 0 mm 5 mps 771 mmHg 65%
19:00 +6°C° 0 mm 4 mps 772 mmHg 70%
20:00 +4°C° 0 mm 4 mps 772 mmHg 74%
21:00 +3°C° 0 mm 3 mps 772 mmHg 79%
22:00 +2°C° 0 mm 3 mps 772 mmHg 82%
23:00 +2°C° 0 mm 3 mps 772 mmHg 85%
Show more